QPF
0.00 0.00 0.00 0.00 0.00 0.00 0.00 0.00 0.00 0.00 0.00 0.00 0.00 0.00 0.00 0.00 0.00 0.00 0.00 0.00 0.00 0.00 0.00 0.00 0.00 0.00 0.00 0.00 0.00 0.00 0.00 0.00 0.03 0.02 0.00 0.00 0.00 0.00 0.00 0.00 0.00 0.00 0.00 0.00 0.00
0.00 0.00 0.00 0.00 0.00 0.00 0.00 0.00 0.00 0.00 0.00 0.00 0.00 0.00 0.00 0.00 0.00 0.00 0.00 0.00 0.00 0.00 0.00 0.00 0.00 0.00 0.00 0.00 0.00 0.00 0.00 0.01 0.04 0.03 0.00 0.00 0.00 0.00 0.00 0.00 0.00 0.00 0.00 0.00 0.00
0.00 0.00 0.00 0.00 0.00 0.00 0.00 0.00 0.00 0.00 0.00 0.00 0.00 0.00 0.00 0.00 0.00 0.00 0.00 0.00 0.00 0.00 0.00 0.00 0.00 0.00 0.00 0.00 0.00 0.00 0.00 0.01 0.06 0.01 0.00 0.00 0.00 0.00 0.00 0.00 0.00 0.00 0.00 0.00 0.00
0.00 0.00 0.00 0.00 0.00 0.00 0.00 0.00 0.00 0.00 0.00 0.00 0.00 0.00 0.00 0.00 0.00 0.00 0.00 0.00 0.00 0.00 0.00 0.00 0.00 0.00 0.00 0.00 0.00 0.00 0.00 0.00 0.06 0.03 0.00 0.00 0.00 0.00 0.00 0.00 0.00 0.00 0.00 0.00 0.00
0.00 0.00 0.00 0.00 0.00 0.00 0.00 0.00 0.00 0.00 0.00 0.00 0.00 0.00 0.00 0.00 0.00 0.00 0.00 0.00 0.00 0.00 0.00 0.00 0.00 0.00 0.00 0.00 0.00 0.00 0.00 0.00 0.01 0.04 0.00 0.00 0.00 0.00 0.00 0.00 0.00 0.00 0.00 0.00 0.00
0.00 0.00 0.00 0.00 0.00 0.00 0.00 0.00 0.00 0.00 0.00 0.00 0.00 0.00 0.00 0.00 0.00 0.00 0.00 0.00 0.00 0.00 0.00 0.00 0.00 0.00 0.00 0.00 0.00 0.00 0.00 0.00 0.00 0.00 0.01 0.00 0.00 0.00 0.00 0.00 0.00 0.00 0.00 0.00 0.00
0.00 0.00 0.00 0.00 0.00 0.00 0.00 0.00 0.00 0.00 0.00 0.00 0.00 0.00 0.00 0.00 0.00 0.00 0.00 0.00 0.00 0.00 0.00 0.00 0.00 0.00 0.00 0.00 0.00 0.00 0.00 0.00 0.00 0.00 0.00 0.01 0.00 0.00 0.00 0.00 0.00 0.00 0.00 0.00 0.00
0.00 0.00 0.00 0.00 0.00 0.00 0.00 0.00 0.00 0.00 0.00 0.00 0.00 0.00 0.00 0.00 0.00 0.00 0.00 0.00 0.00 0.00 0.00 0.00 0.00 0.00 0.00 0.00 0.00 0.00 0.00 0.00 0.00 0.00 0.00 0.00 0.00 0.00 0.00 0.00 0.00 0.00 0.00 0.00 0.00
0.00 0.00 0.00 0.00 0.00 0.00 0.00 0.00 0.00 0.00 0.00 0.00 0.00 0.00 0.00 0.00 0.00 0.00 0.00 0.00 0.00 0.00 0.00 0.00 0.00 0.00 0.00 0.00 0.00 0.00 0.00 0.00 0.00 0.00 0.00 0.00 0.00 0.01 0.00 0.00 0.00 0.00 0.00 0.00 0.00
0.00 0.00 0.00 0.00 0.00 0.00 0.00 0.00 0.00 0.00 0.00 0.00 0.00 0.00 0.00 0.00 0.00 0.00 0.00 0.00 0.00 0.00 0.00 0.00 0.00 0.00 0.00 0.00 0.00 0.00 0.00 0.00 0.00 0.00 0.00 0.00 0.00 0.00 0.01 0.00 0.00 0.00 0.00 0.00 0.00
0.00 0.00 0.00 0.00 0.00 0.00 0.00 0.00 0.00 0.00 0.00 0.00 0.00 0.00 0.00 0.00 0.00 0.00 0.00 0.00 0.00 0.00 0.00 0.00 0.00 0.00 0.00 0.00 0.00 0.00 0.00 0.00 0.00 0.00 0.00 0.00 0.00 0.00 0.00 0.00 0.00 0.00 0.00 0.00 0.00
0.00 0.00 0.00 0.00 0.00 0.00 0.00 0.00 0.00 0.00 0.00 0.00 0.00 0.00 0.00 0.00 0.00 0.00 0.00 0.00 0.00 0.00 0.00 0.00 0.00 0.00 0.00 0.00 0.00 0.00 0.00 0.00 0.00 0.00 0.00 0.00 0.00 0.00 0.00 0.00 0.00 0.00 0.00 0.00 0.00
0.00 0.00 0.00 0.00 0.00 0.00 0.00 0.00 0.00 0.00 0.00 0.00 0.00 0.00 0.00 0.00 0.00 0.00 0.00 0.00 0.00 0.00 0.00 0.00 0.00 0.00 0.00 0.00 0.00 0.00 0.00 0.00 0.00 0.00 0.00 0.00 0.00 0.00 0.00 0.00 0.00 0.00 0.00 0.00 0.00
0.00 0.00 0.00 0.00 0.00 0.00 0.00 0.00 0.00 0.00 0.00 0.00 0.00 0.00 0.00 0.00 0.00 0.00 0.00 0.00 0.00 0.00 0.00 0.01 0.01 0.01 0.00 0.00 0.00 0.00 0.00 0.00 0.00 0.00 0.00 0.00 0.00 0.00 0.00 0.00 0.00 0.00 0.00 0.00 0.00
0.00 0.00 0.00 0.00 0.00 0.00 0.00 0.00 0.00 0.00 0.00 0.00 0.00 0.00 0.00 0.00 0.00 0.00 0.00 0.00 0.00 0.00 0.00 0.00 0.00 0.02 0.00 0.00 0.00 0.00 0.00 0.00 0.00 0.00 0.00 0.00 0.00 0.00 0.00 0.00 0.00 0.00 0.00 0.00 0.00
0.00 0.00 0.00 0.00 0.00 0.00 0.00 0.00 0.00 0.00 0.00 0.00 0.00 0.00 0.00 0.00 0.00 0.00 0.00 0.00 0.00 0.00 0.00 0.00 0.00 0.00 0.00 0.00 0.00 0.00 0.00 0.00 0.00 0.00 0.00 0.00 0.00 0.00 0.00 0.00 0.00 0.00 0.00 0.00 0.00
0.00 0.00 0.00 0.00 0.00 0.00 0.00 0.00 0.00 0.00 0.00 0.00 0.00 0.00 0.00 0.00 0.00 0.00 0.00 0.00 0.00 0.00 0.00 0.00 0.00 0.00 0.00 0.00 0.00 0.00 0.00 0.01 0.01 0.00 0.00 0.00 0.00 0.00 0.00 0.00 0.00 0.00 0.00 0.00 0.00
0.00 0.00 0.00 0.00 0.00 0.00 0.00 0.00 0.00 0.00 0.00 0.00 0.00 0.00 0.00 0.00 0.00 0.00 0.00 0.00 0.00 0.00 0.00 0.00 0.00 0.00 0.00 0.00 0.00 0.00 0.00 0.00 0.00 0.00 0.00 0.00 0.00 0.00 0.00 0.00 0.00 0.00 0.00 0.00 0.00
0.00 0.00 0.00 0.00 0.00 0.00 0.00 0.00 0.00 0.00 0.00 0.00 0.00 0.00 0.00 0.00 0.00 0.00 0.00 0.00 0.00 0.00 0.00 0.00 0.00 0.00 0.00 0.00 0.00 0.00 0.00 0.00 0.00 0.00 0.00 0.00 0.00 0.00 0.00 0.00 0.00 0.00 0.00 0.00 0.00
0.00 0.00 0.00 0.00 0.00 0.00 0.00 0.00 0.00 0.00 0.00 0.00 0.00 0.00 0.00 0.00 0.00 0.00 0.00 0.00 0.00 0.00 0.00 0.00 0.00 0.00 0.00 0.00 0.00 0.00 0.00 0.00 0.00 0.00 0.00 0.00 0.00 0.00 0.00 0.00 0.00 0.00 0.00 0.00 0.00
0.00 0.00 0.00 0.00 0.00 0.00 0.00 0.00 0.00 0.00 0.00 0.00 0.00 0.00 0.00 0.00 0.00 0.00 0.00 0.00 0.00 0.00 0.00 0.00 0.00 0.00 0.00 0.00 0.00 0.00 0.00 0.00 0.00 0.00 0.00 0.00 0.00 0.00 0.00 0.00 0.00 0.00 0.00 0.00 0.00
0.00 0.00 0.00 0.00 0.00 0.00 0.00 0.00 0.00 0.00 0.00 0.00 0.00 0.00 0.00 0.00 0.00 0.00 0.00 0.00 0.00 0.00 0.00 0.00 0.00 0.00 0.00 0.00 0.00 0.00 0.00 0.00 0.00 0.00 0.00 0.00 0.00 0.00 0.00 0.00 0.00 0.00 0.00 0.00 0.00
0.00 0.00 0.00 0.00 0.00 0.00 0.00 0.00 0.00 0.00 0.00 0.00 0.00 0.00 0.00 0.00 0.00 0.00 0.00 0.00 0.00 0.00 0.00 0.00 0.00 0.00 0.00 0.00 0.00 0.00 0.00 0.00 0.00 0.00 0.00 0.00 0.00 0.00 0.00 0.00 0.00 0.00 0.00 0.00 0.00
0.00 0.00 0.00 0.00 0.00 0.00 0.00 0.00 0.00 0.00 0.00 0.00 0.00 0.00 0.00 0.00 0.00 0.00 0.00 0.00 0.00 0.00 0.00 0.00 0.00 0.00 0.00 0.00 0.00 0.00 0.00 0.00 0.00 0.00 0.00 0.00 0.00 0.00 0.00 0.00 0.00 0.00 0.00 0.00 0.00
0.00 0.00 0.00 0.00 0.00 0.00 0.00 0.00 0.00 0.00 0.00 0.00 0.00 0.00 0.00 0.00 0.00 0.00 0.00 0.00 0.00 0.00 0.00 0.00 0.00 0.00 0.00 0.00 0.00 0.00 0.00 0.00 0.00 0.00 0.00 0.00 0.00 0.00 0.00 0.00 0.00 0.00 0.00 0.00 0.00
0.00 0.00 0.00 0.00 0.00 0.00 0.00 0.00 0.00 0.00 0.00 0.00 0.00 0.00 0.00 0.00 0.00 0.00 0.00 0.00 0.00 0.00 0.00 0.00 0.00 0.00 0.00 0.00 0.00 0.00 0.00 0.00 0.00 0.00 0.00 0.00 0.00 0.00 0.00 0.00 0.00 0.00 0.00 0.00 0.00
0.00 0.00 0.00 0.00 0.00 0.00 0.00 0.00 0.00 0.00 0.00 0.00 0.00 0.00 0.00 0.00 0.00 0.00 0.00 0.00 0.00 0.00 0.00 0.00 0.00 0.00 0.00 0.00 0.00 0.00 0.00 0.00 0.00 0.00 0.00 0.00 0.00 0.00 0.00 0.00 0.00 0.00 0.00 0.00 0.00
MSLP
1019.82 1019.61 1019.45 1019.31 1019.20 1019.09 1018.99 1018.86 1018.61 1018.39 1018.19 1018.16 1017.96 1017.72 1017.54 1017.43 1017.17 1016.79 1016.35 1015.29 1014.87 1014.62 1014.54 1014.36 1014.18 1014.02 1013.99 1014.08 1013.72 1013.58 1014.23 1013.99 1013.27 1012.50 1011.14 1009.86 1009.20 1009.19 1009.47 1010.01 1010.51 1011.11 1011.52 1011.70 1012.69
1019.74 1019.51 1019.36 1019.21 1019.12 1019.01 1018.91 1018.78 1018.63 1018.50 1018.37 1018.22 1018.06 1017.85 1017.59 1017.42 1017.21 1016.30 1015.10 1014.51 1014.38 1014.52 1014.62 1014.74 1014.57 1014.27 1014.36 1014.09 1013.84 1013.75 1013.63 1012.86 1012.24 1011.87 1011.06 1009.84 1009.26 1009.28 1009.85 1010.44 1011.40 1011.85 1011.86 1012.22 1012.87
1019.75 1019.53 1019.35 1019.18 1019.10 1018.95 1018.85 1018.68 1018.53 1018.43 1018.41 1018.34 1018.16 1017.93 1017.74 1017.48 1017.13 1015.27 1014.55 1014.26 1014.32 1014.37 1014.65 1014.87 1014.63 1014.47 1014.39 1014.15 1013.81 1013.31 1012.93 1012.19 1011.65 1011.30 1010.55 1010.00 1009.55 1009.43 1010.03 1010.79 1010.93 1011.80 1012.37 1012.78 1013.28
1019.75 1019.60 1019.41 1019.17 1019.02 1018.88 1018.78 1018.57 1018.35 1018.33 1018.32 1018.28 1018.17 1017.95 1017.76 1017.66 1016.78 1014.87 1014.52 1014.32 1014.15 1014.25 1014.73 1014.77 1014.57 1014.63 1014.30 1014.22 1013.59 1013.37 1012.55 1011.96 1011.46 1011.30 1010.81 1010.47 1009.90 1009.70 1010.12 1010.38 1010.26 1010.91 1011.50 1012.65 1013.44
1019.66 1019.55 1019.41 1019.15 1018.87 1018.73 1018.65 1018.49 1018.24 1018.19 1018.16 1018.20 1018.19 1017.96 1017.67 1017.49 1016.11 1014.92 1014.73 1014.38 1014.27 1014.44 1014.62 1014.80 1014.75 1014.68 1014.49 1014.06 1013.85 1013.35 1012.65 1011.90 1011.33 1011.24 1011.15 1010.60 1010.29 1010.04 1010.05 1010.43 1010.57 1011.16 1011.97 1012.69 1013.31
1019.68 1019.43 1019.29 1019.09 1018.76 1018.53 1018.41 1018.24 1018.12 1017.97 1018.00 1017.98 1018.09 1018.16 1017.90 1017.07 1014.97 1014.64 1014.51 1014.47 1014.47 1014.62 1014.56 1014.58 1014.62 1014.40 1014.44 1013.99 1013.97 1012.77 1012.66 1011.80 1011.61 1011.34 1011.13 1011.09 1010.75 1010.35 1009.94 1010.29 1011.02 1011.53 1012.17 1012.65 1013.00
1019.53 1019.28 1019.07 1019.02 1018.81 1018.47 1018.18 1017.98 1017.91 1017.76 1017.69 1017.72 1017.84 1018.21 1017.62 1016.09 1014.53 1014.45 1014.41 1014.40 1014.42 1014.55 1014.61 1014.38 1014.39 1014.74 1014.40 1014.05 1013.60 1012.97 1013.00 1012.09 1011.57 1011.41 1011.27 1011.34 1011.38 1010.65 1010.02 1010.52 1011.25 1011.68 1012.10 1012.57 1012.86
1019.49 1019.27 1019.01 1018.82 1018.70 1018.42 1018.10 1017.81 1017.60 1017.61 1017.45 1017.44 1017.53 1017.88 1016.94 1014.74 1014.37 1014.57 1014.30 1014.25 1014.15 1014.28 1014.48 1014.41 1014.25 1014.34 1014.59 1014.32 1013.76 1013.21 1013.17 1012.75 1011.40 1011.34 1011.29 1011.28 1010.91 1010.30 1010.09 1010.62 1011.36 1011.64 1011.99 1012.27 1012.58
1019.25 1019.17 1018.91 1018.62 1018.49 1018.29 1017.98 1017.62 1017.41 1017.30 1017.38 1017.21 1017.52 1017.51 1016.18 1014.47 1014.48 1014.31 1014.24 1014.36 1014.33 1014.29 1014.29 1014.29 1014.29 1014.58 1014.73 1014.97 1014.89 1014.00 1013.49 1012.83 1011.93 1011.08 1011.32 1011.42 1010.95 1010.34 1010.02 1010.54 1011.12 1011.49 1011.75 1012.04 1012.22
1019.07 1018.82 1018.72 1018.56 1018.26 1018.04 1017.75 1017.45 1017.18 1017.35 1017.41 1017.24 1016.93 1017.31 1015.55 1014.55 1014.29 1014.38 1014.40 1014.47 1014.48 1014.56 1014.79 1014.87 1015.02 1015.14 1015.18 1015.32 1014.92 1014.24 1013.55 1012.78 1012.10 1011.49 1011.40 1011.57 1011.19 1010.54 1010.32 1010.68 1010.93 1011.40 1011.58 1011.81 1012.02
1018.78 1018.67 1018.48 1018.40 1018.27 1017.93 1017.73 1017.47 1017.71 1017.51 1017.15 1016.24 1015.45 1014.90 1014.34 1014.38 1014.35 1014.65 1014.61 1014.65 1014.66 1015.04 1015.47 1015.54 1015.85 1015.65 1015.62 1015.31 1014.95 1014.49 1013.83 1013.10 1012.26 1011.54 1011.55 1011.67 1011.41 1010.69 1010.54 1010.90 1011.18 1011.42 1011.42 1011.55 1011.75
1018.49 1018.41 1018.32 1018.19 1018.11 1017.97 1017.85 1017.47 1016.53 1016.57 1016.23 1015.06 1014.77 1014.53 1013.99 1014.02 1014.62 1014.73 1014.74 1015.12 1015.04 1015.29 1015.53 1015.99 1015.87 1015.68 1015.49 1015.21 1015.01 1014.59 1014.15 1013.63 1012.67 1011.79 1011.78 1011.57 1011.42 1010.60 1010.53 1010.44 1010.58 1010.92 1011.33 1011.44 1011.67
1018.24 1018.11 1018.03 1017.88 1017.68 1017.86 1017.53 1016.69 1016.06 1016.18 1016.39 1014.35 1013.74 1013.84 1013.81 1014.12 1014.40 1014.77 1014.94 1014.93 1015.16 1015.35 1015.53 1015.92 1015.51 1015.19 1015.22 1014.99 1014.84 1014.31 1014.08 1013.58 1013.27 1012.42 1012.00 1011.99 1011.82 1011.22 1010.33 1010.20 1010.46 1011.01 1011.35 1011.55 1011.72
1017.81 1017.61 1017.86 1017.76 1018.07 1016.92 1016.72 1016.12 1016.04 1016.24 1016.50 1014.55 1013.61 1013.46 1013.78 1014.03 1014.60 1014.64 1014.76 1015.09 1015.18 1015.01 1015.37 1015.84 1015.58 1015.39 1015.14 1014.75 1014.54 1014.13 1013.72 1013.22 1013.16 1013.20 1012.95 1012.34 1012.11 1011.21 1010.35 1010.59 1011.25 1011.81 1012.13 1012.08 1012.35
1017.18 1017.16 1017.51 1017.57 1017.50 1016.66 1016.17 1015.90 1016.04 1016.48 1016.49 1014.17 1013.81 1013.20 1013.55 1014.45 1014.83 1014.77 1014.78 1014.95 1015.25 1015.05 1015.71 1016.03 1015.92 1015.67 1015.26 1014.41 1014.04 1013.65 1013.43 1013.36 1013.42 1013.70 1013.70 1013.15 1013.09 1011.05 1010.67 1011.27 1012.06 1012.52 1012.71 1012.75 1012.94
1016.99 1016.87 1017.23 1017.49 1017.45 1016.46 1016.02 1015.99 1016.57 1017.17 1015.73 1014.07 1013.76 1013.93 1014.20 1014.47 1014.83 1014.84 1014.86 1015.26 1015.11 1015.24 1015.16 1015.55 1015.91 1015.81 1014.98 1014.46 1014.00 1013.78 1013.95 1014.39 1014.80 1015.17 1015.02 1013.94 1013.45 1012.02 1011.29 1011.05 1012.23 1012.90 1013.16 1013.26 1013.52
1017.30 1016.99 1017.21 1016.56 1016.41 1015.96 1016.22 1016.88 1017.61 1016.87 1014.36 1014.01 1013.71 1013.87 1014.42 1014.46 1014.73 1014.84 1014.89 1015.38 1015.24 1015.51 1015.46 1015.75 1015.72 1015.21 1014.91 1014.77 1014.45 1014.34 1014.97 1016.48 1016.99 1017.32 1016.12 1014.95 1014.62 1012.14 1011.43 1011.18 1011.60 1012.82 1013.51 1013.84 1014.21
1017.16 1017.16 1016.65 1016.34 1016.15 1016.12 1016.60 1017.52 1017.60 1015.11 1013.88 1013.02 1013.09 1013.68 1014.25 1014.09 1014.34 1014.58 1014.73 1015.07 1014.92 1015.09 1015.35 1015.76 1015.66 1015.02 1014.67 1014.78 1014.70 1014.99 1015.25 1016.18 1016.78 1017.22 1016.74 1015.89 1014.51 1012.51 1012.20 1012.07 1012.62 1013.17 1013.80 1014.45 1015.04
1016.75 1016.90 1016.86 1015.97 1016.09 1016.56 1017.18 1017.24 1015.28 1014.17 1012.93 1012.92 1013.14 1013.61 1013.83 1013.63 1013.99 1014.46 1014.55 1014.06 1013.64 1014.03 1014.40 1014.89 1015.06 1015.05 1015.11 1015.07 1014.87 1015.26 1015.44 1015.25 1016.17 1018.18 1017.32 1015.70 1014.35 1013.27 1012.90 1013.15 1013.51 1014.06 1014.57 1015.25 1015.67
1017.19 1016.83 1016.22 1015.93 1016.19 1017.05 1017.34 1016.00 1014.22 1012.78 1012.35 1012.45 1013.11 1012.93 1013.37 1013.49 1014.02 1014.34 1013.83 1012.20 1012.37 1012.23 1012.62 1013.58 1014.58 1015.12 1015.31 1015.30 1015.24 1015.42 1014.88 1015.54 1016.28 1017.49 1017.20 1015.76 1014.47 1013.22 1013.41 1013.52 1013.98 1014.65 1015.07 1015.73 1016.19
1017.25 1016.90 1016.16 1015.99 1016.45 1017.21 1017.04 1015.50 1013.38 1012.24 1012.11 1012.38 1012.41 1012.60 1012.53 1012.93 1013.21 1013.54 1012.89 1011.45 1011.01 1011.69 1011.96 1012.88 1013.77 1015.52 1015.61 1015.41 1015.13 1015.53 1014.99 1015.27 1015.90 1016.35 1016.53 1015.81 1013.83 1012.15 1012.24 1012.74 1013.59 1014.67 1015.35 1016.02 1016.71
1017.94 1017.24 1016.20 1016.15 1017.08 1016.70 1015.88 1014.13 1013.27 1012.43 1012.22 1012.26 1012.31 1012.01 1011.73 1011.71 1012.34 1012.62 1011.91 1010.84 1010.38 1010.78 1011.88 1012.09 1012.89 1014.32 1014.14 1014.06 1014.32 1014.62 1014.48 1014.40 1014.93 1016.04 1016.15 1015.62 1013.55 1011.92 1011.99 1012.56 1013.36 1014.65 1015.48 1016.27 1016.91
1018.59 1017.20 1016.45 1016.41 1016.51 1016.23 1014.93 1013.82 1012.94 1012.35 1012.10 1012.00 1011.80 1011.49 1011.11 1011.11 1011.61 1011.21 1010.66 1010.29 1010.31 1010.70 1011.08 1011.34 1012.11 1013.42 1014.03 1014.55 1014.08 1013.85 1013.69 1013.93 1014.21 1014.81 1015.35 1015.34 1013.53 1012.38 1012.40 1013.06 1013.83 1014.64 1015.67 1016.52 1017.26
1018.78 1017.92 1017.03 1016.73 1016.00 1015.69 1015.08 1013.68 1012.79 1011.88 1011.71 1011.46 1011.24 1011.00 1011.11 1011.07 1010.58 1010.37 1010.43 1010.51 1010.43 1010.64 1010.91 1011.17 1011.26 1011.38 1011.76 1011.64 1011.93 1012.81 1012.44 1013.00 1013.81 1014.79 1014.69 1014.07 1013.46 1013.10 1013.14 1013.40 1014.17 1014.90 1015.73 1016.61 1017.51
1018.14 1017.66 1016.96 1016.79 1016.08 1015.78 1015.13 1013.95 1013.01 1012.45 1011.93 1011.51 1011.17 1010.95 1010.84 1010.87 1010.46 1010.04 1010.00 1010.66 1010.95 1010.91 1011.14 1011.34 1011.34 1011.00 1010.65 1010.52 1010.90 1011.30 1011.44 1011.88 1012.57 1012.61 1013.11 1012.64 1012.68 1012.02 1012.30 1012.86 1013.59 1014.49 1015.68 1016.71 1017.66
1018.56 1018.09 1017.26 1016.74 1016.05 1015.66 1014.95 1014.03 1013.02 1012.17 1012.00 1011.46 1011.05 1010.43 1010.42 1010.27 1009.44 1009.28 1009.36 1009.99 1010.15 1011.08 1011.44 1011.35 1011.29 1010.91 1010.61 1010.25 1010.38 1010.51 1010.57 1011.16 1011.31 1011.42 1011.66 1011.79 1011.48 1010.71 1011.16 1012.64 1013.78 1014.58 1015.53 1016.57 1017.57
1019.49 1018.80 1018.31 1017.18 1016.23 1015.65 1014.95 1014.15 1013.32 1013.05 1011.51 1011.01 1010.97 1010.67 1010.21 1009.67 1009.24 1008.91 1008.72 1009.00 1009.25 1010.02 1010.91 1011.32 1011.26 1011.40 1011.03 1010.68 1010.59 1010.20 1009.02 1009.55 1009.89 1009.97 1009.91 1010.63 1009.81 1010.29 1011.42 1012.17 1013.12 1014.37 1015.27 1016.32 1017.38
Thickness
5617 5615 5611 5606 5599 5593 5585 5577 5571 5564 5558 5553 5549 5546 5546 5548 5552 5559 5565 5584 5595 5603 5609 5618 5628 5638 5646 5649 5664 5672 5649 5656 5674 5682 5699 5726 5730 5741 5746 5738 5739 5741 5742 5747 5748
5615 5612 5607 5603 5597 5590 5582 5575 5568 5561 5554 5549 5545 5541 5542 5544 5547 5556 5574 5584 5591 5596 5601 5602 5610 5622 5626 5638 5648 5648 5642 5668 5690 5694 5698 5718 5725 5729 5729 5726 5723 5726 5740 5742 5742
5612 5608 5605 5600 5594 5587 5579 5574 5568 5560 5553 5546 5542 5539 5539 5541 5543 5560 5573 5582 5587 5592 5596 5598 5604 5613 5617 5628 5637 5648 5645 5681 5691 5699 5704 5711 5715 5731 5720 5714 5725 5720 5728 5732 5732
5608 5605 5601 5597 5591 5585 5578 5573 5569 5561 5553 5547 5543 5540 5539 5539 5540 5564 5571 5577 5583 5587 5589 5592 5596 5600 5610 5615 5635 5635 5657 5674 5691 5691 5696 5697 5715 5718 5718 5724 5738 5735 5737 5730 5726
5605 5602 5598 5595 5591 5585 5578 5572 5569 5562 5556 5548 5544 5542 5541 5539 5547 5564 5567 5573 5578 5580 5581 5584 5587 5592 5598 5612 5620 5626 5648 5668 5682 5682 5685 5695 5703 5712 5715 5724 5730 5731 5728 5723 5723
5602 5600 5597 5594 5591 5586 5579 5573 5568 5564 5558 5552 5546 5543 5542 5538 5563 5566 5568 5570 5572 5573 5576 5581 5584 5591 5594 5604 5605 5633 5640 5660 5668 5674 5678 5680 5692 5708 5718 5720 5718 5721 5719 5720 5721
5601 5599 5596 5591 5588 5585 5581 5575 5568 5565 5562 5556 5550 5544 5545 5550 5569 5569 5569 5569 5571 5570 5570 5578 5582 5583 5589 5598 5613 5625 5625 5638 5654 5665 5671 5675 5673 5688 5715 5714 5709 5713 5715 5715 5718
5599 5596 5595 5591 5587 5584 5581 5576 5571 5566 5564 5560 5555 5548 5546 5569 5570 5568 5570 5569 5571 5571 5570 5575 5580 5583 5585 5594 5600 5612 5613 5609 5649 5658 5663 5670 5663 5693 5705 5707 5703 5705 5709 5712 5715
5598 5595 5593 5591 5587 5583 5580 5578 5573 5568 5563 5562 5556 5550 5550 5569 5565 5568 5568 5564 5565 5567 5569 5573 5574 5572 5575 5573 5569 5587 5587 5607 5636 5655 5654 5660 5661 5688 5699 5700 5700 5702 5704 5708 5710
5597 5596 5593 5590 5588 5585 5581 5578 5574 5567 5561 5560 5561 5550 5560 5564 5565 5563 5563 5561 5559 5559 5557 5559 5557 5555 5560 5557 5558 5576 5593 5610 5621 5642 5648 5647 5655 5682 5688 5692 5694 5696 5699 5702 5705
5596 5595 5593 5590 5586 5585 5582 5577 5569 5564 5561 5562 5567 5566 5572 5567 5564 5556 5555 5553 5553 5548 5538 5543 5540 5538 5546 5558 5571 5574 5586 5597 5620 5636 5637 5637 5648 5668 5682 5681 5682 5689 5695 5698 5702
5595 5593 5592 5589 5586 5583 5580 5577 5579 5574 5564 5575 5572 5570 5573 5567 5553 5548 5548 5540 5541 5534 5537 5535 5529 5540 5548 5555 5559 5564 5568 5575 5601 5620 5623 5629 5636 5660 5670 5680 5684 5688 5690 5696 5700
5593 5592 5591 5589 5588 5582 5579 5582 5582 5577 5561 5578 5578 5570 5568 5562 5553 5543 5541 5539 5536 5531 5532 5523 5534 5542 5545 5548 5553 5561 5561 5572 5582 5607 5617 5624 5623 5638 5665 5680 5679 5682 5684 5688 5690
5592 5592 5587 5586 5581 5588 5584 5585 5581 5575 5549 5574 5576 5574 5566 5560 5548 5544 5539 5534 5533 5533 5531 5528 5532 5535 5539 5544 5550 5549 5571 5582 5585 5581 5576 5612 5593 5629 5655 5665 5663 5664 5669 5675 5682
5593 5590 5586 5582 5580 5586 5586 5584 5578 5569 5511 5581 5573 5578 5567 5553 5546 5543 5539 5534 5527 5531 5526 5519 5523 5529 5532 5545 5555 5559 5574 5582 5587 5585 5582 5601 5581 5625 5646 5648 5645 5649 5659 5665 5668
5588 5587 5583 5578 5576 5582 5582 5580 5571 5542 5518 5572 5572 5563 5558 5553 5546 5542 5538 5531 5531 5529 5532 5528 5523 5525 5535 5544 5551 5561 5564 5559 5560 5566 5553 5592 5592 5607 5632 5647 5640 5645 5652 5658 5660
5577 5580 5576 5579 5579 5580 5576 5568 5535 5516 5585 5577 5572 5568 5557 5553 5547 5542 5538 5525 5522 5516 5521 5524 5524 5531 5535 5537 5544 5551 5540 5485 5537 5532 5557 5547 5567 5614 5636 5641 5648 5642 5643 5646 5647
5570 5569 5573 5572 5572 5571 5566 5553 5537 5569 5577 5589 5584 5571 5558 5560 5553 5547 5541 5528 5529 5528 5521 5505 5500 5528 5536 5536 5539 5540 5543 5517 5541 5538 5552 5547 5566 5600 5621 5627 5630 5633 5632 5633 5631
5563 5562 5562 5566 5563 5558 5548 5522 5551 5566 5590 5580 5577 5564 5562 5568 5559 5549 5540 5537 5544 5537 5531 5519 5527 5529 5531 5533 5540 5541 5529 5559 5525 5504 5523 5548 5584 5603 5610 5614 5619 5620 5621 5617 5617
5547 5552 5557 5555 5552 5541 5532 5556 5571 5586 5585 5582 5566 5568 5557 5560 5555 5545 5543 5562 5558 5556 5552 5543 5530 5529 5528 5531 5536 5532 5551 5543 5522 5538 5541 5556 5585 5586 5593 5603 5608 5607 5606 5604 5603
5533 5538 5544 5542 5537 5523 5509 5539 5575 5583 5577 5571 5568 5571 5567 5563 5556 5548 5556 5570 5571 5560 5557 5551 5539 5520 5526 5518 5523 5525 5522 5540 5539 5537 5540 5541 5567 5593 5591 5599 5605 5598 5597 5592 5588
5510 5518 5527 5528 5511 5504 5518 5554 5564 5567 5565 5561 5564 5567 5571 5570 5558 5550 5559 5570 5574 5566 5554 5553 5539 5501 5535 5541 5541 5541 5547 5551 5537 5546 5517 5532 5562 5603 5597 5597 5598 5590 5585 5579 5577
5491 5505 5508 5507 5498 5502 5522 5541 5548 5554 5554 5552 5556 5560 5569 5572 5563 5564 5572 5575 5572 5565 5559 5558 5543 5509 5528 5530 5535 5541 5550 5555 5555 5534 5525 5550 5556 5590 5590 5586 5588 5581 5575 5571 5566
5475 5480 5489 5488 5492 5504 5510 5522 5531 5542 5546 5548 5551 5556 5556 5556 5560 5567 5568 5564 5566 5565 5561 5558 5553 5554 5550 5560 5546 5539 5548 5552 5554 5507 5533 5523 5547 5579 5579 5577 5572 5569 5564 5560 5555
5462 5469 5474 5472 5484 5483 5490 5501 5512 5517 5527 5533 5535 5541 5544 5535 5548 5554 5562 5549 5551 5555 5554 5547 5545 5556 5561 5568 5559 5556 5559 5551 5534 5561 5556 5566 5555 5575 5572 5564 5567 5563 5555 5549 5543
5438 5440 5448 5456 5466 5466 5473 5483 5496 5506 5504 5512 5514 5534 5529 5531 5550 5553 5551 5544 5552 5535 5533 5536 5544 5555 5560 5562 5559 5561 5559 5548 5558 5561 5557 5564 5569 5582 5581 5561 5556 5555 5549 5541 5533
5400 5408 5412 5435 5444 5448 5456 5462 5472 5473 5497 5500 5501 5508 5515 5527 5534 5537 5544 5549 5548 5534 5524 5523 5529 5533 5525 5543 5547 5540 5559 5554 5554 5558 5573 5564 5585 5580 5567 5568 5559 5548 5543 5532 5523